TAM8016 SBGR-SUMU

Flight info

Callsign TAM8016
Flight time N/A
Altitude 34000
Route UBSOD UZ38 UMDEX DCT CXS DCT NIGRO UM792 CRR
Aircraft A320/M-SDE1E2E3FGHIRWY/LB1

Departure

Time 2026-05-05 07:23
Airport São Paulo/Guarulhos–Governor André Franco Montoro International Airport (SBGR)

Arrival

Time N/A
Airport Carrasco General Cesáreo L. Berisso International Airport (SUMU)
Time Latitude Longitude Altitude Speed Heading
2026-05-05 07:03 -23.42785 -46.48647 2451 ft 0 kts 95°
2026-05-05 07:12 -23.42785 -46.48648 2451 ft 0 kts 95°
2026-05-05 07:15 -23.42784 -46.48670 2453 ft 4 kts 95°
2026-05-05 07:15 -23.42782 -46.48699 2458 ft 4 kts 94°
2026-05-05 07:16 -23.42781 -46.48723 2458 ft 4 kts 107°
2026-05-05 07:16 -23.42767 -46.48739 2452 ft 4 kts 178°
2026-05-05 07:16 -23.42744 -46.48737 2456 ft 2 kts 186°
2026-05-05 07:16 -23.42743 -46.48737 2456 ft 0 kts 186°
2026-05-05 07:18 -23.42745 -46.48737 2456 ft 3 kts 184°
2026-05-05 07:18 -23.42793 -46.48741 2454 ft 10 kts 187°
2026-05-05 07:18 -23.42859 -46.48750 2451 ft 9 kts 186°
2026-05-05 07:19 -23.42925 -46.48757 2451 ft 9 kts 186°
2026-05-05 07:19 -23.42999 -46.48765 2451 ft 13 kts 186°
2026-05-05 07:19 -23.43083 -46.48774 2453 ft 11 kts 186°
2026-05-05 07:19 -23.43150 -46.48774 2454 ft 7 kts 155°
2026-05-05 07:20 -23.43167 -46.48730 2460 ft 7 kts 92°
2026-05-05 07:20 -23.43174 -46.48659 2462 ft 12 kts 96°
2026-05-05 07:20 -23.43182 -46.48565 2459 ft 13 kts 95°
2026-05-05 07:20 -23.43191 -46.48463 2460 ft 14 kts 95°
2026-05-05 07:21 -23.43221 -46.48388 2462 ft 11 kts 158°
2026-05-05 07:21 -23.43310 -46.48361 2464 ft 16 kts 164°
2026-05-05 07:21 -23.43413 -46.48305 2461 ft 18 kts 114°
2026-05-05 07:21 -23.43405 -46.48244 2463 ft 1 kts 74°
2026-05-05 07:22 -23.43376 -46.48134 2464 ft 45 kts 73°
2026-05-05 07:22 -23.43222 -46.47563 2462 ft 110 kts 73°
2026-05-05 07:22 -23.42957 -46.46581 2468 ft 158 kts 73°
2026-05-05 07:22 -23.42612 -46.45333 2807 ft 175 kts 72°
2026-05-05 07:23 -23.42247 -46.44065 3554 ft 175 kts 70°
2026-05-05 07:23 -23.41865 -46.42764 3973 ft 188 kts 70°
2026-05-05 07:23 -23.41441 -46.41324 4169 ft 210 kts 70°
2026-05-05 07:23 -23.40968 -46.39716 4394 ft 235 kts 71°
2026-05-05 07:24 -23.40447 -46.37932 4711 ft 259 kts 71°
2026-05-05 07:24 -23.40178 -46.35932 5188 ft 276 kts 96°
2026-05-05 07:24 -23.40696 -46.33897 5888 ft 282 kts 110°
2026-05-05 07:24 -23.41364 -46.31869 6673 ft 286 kts 110°
2026-05-05 07:25 -23.42033 -46.29851 7418 ft 289 kts 110°
2026-05-05 07:25 -23.42722 -46.27788 8195 ft 291 kts 113°
2026-05-05 07:25 -23.43860 -46.25983 8896 ft 293 kts 141°
2026-05-05 07:25 -23.45670 -46.25031 9323 ft 291 kts 175°
2026-05-05 07:26 -23.47670 -46.25186 10138 ft 289 kts 192°
2026-05-05 07:26 -23.49678 -46.25599 10604 ft 304 kts 192°
2026-05-05 07:26 -23.51808 -46.26226 10775 ft 326 kts 204°
2026-05-05 07:26 -23.53795 -46.27485 11091 ft 340 kts 219°
2026-05-05 07:27 -23.55478 -46.29361 11689 ft 345 kts 234°
2026-05-05 07:27 -23.56631 -46.31664 12338 ft 350 kts 249°
2026-05-05 07:27 -23.57248 -46.34245 12993 ft 353 kts 256°
2026-05-05 07:27 -23.57774 -46.36869 13652 ft 356 kts 256°
2026-05-05 07:28 -23.58301 -46.39522 14263 ft 360 kts 257°
2026-05-05 07:28 -23.58831 -46.42196 14840 ft 362 kts 256°
2026-05-05 07:28 -23.59364 -46.44891 15423 ft 364 kts 256°
2026-05-05 07:28 -23.59899 -46.47606 16017 ft 367 kts 256°
2026-05-05 07:29 -23.60434 -46.50316 16210 ft 368 kts 256°
2026-05-05 07:29 -23.60956 -46.53040 16379 ft 370 kts 257°
2026-05-05 07:29 -23.61407 -46.55805 16980 ft 371 kts 259°
2026-05-05 07:29 -23.61785 -46.58389 17510 ft 373 kts 259°
2026-05-05 07:30 -23.62172 -46.61195 18054 ft 376 kts 259°
2026-05-05 07:30 -23.63550 -46.66721 19030 ft 377 kts 242°
2026-05-05 07:30 -23.64895 -46.69174 19482 ft 378 kts 236°
2026-05-05 07:31 -23.66315 -46.71591 19947 ft 380 kts 236°
2026-05-05 07:31 -23.67732 -46.74014 20398 ft 382 kts 236°
2026-05-05 07:31 -23.69169 -46.76479 20850 ft 383 kts 235°
2026-05-05 07:31 -23.70837 -46.78749 21272 ft 384 kts 224°
2026-05-05 07:32 -23.72878 -46.80624 21704 ft 385 kts 214°
2026-05-05 07:32 -23.75185 -46.82129 22138 ft 387 kts 210°
2026-05-05 07:32 -23.77525 -46.83597 22568 ft 389 kts 210°
2026-05-05 07:32 -23.79846 -46.85055 22982 ft 391 kts 210°
2026-05-05 07:33 -23.82238 -46.86559 23418 ft 392 kts 210°
2026-05-05 07:33 -23.84572 -46.88031 23789 ft 394 kts 210°
2026-05-05 07:33 -23.86952 -46.89533 24136 ft 396 kts 210°
2026-05-05 07:33 -23.89344 -46.91042 24486 ft 397 kts 210°
2026-05-05 07:34 -23.91745 -46.92558 24833 ft 399 kts 210°
2026-05-05 07:34 -23.94158 -46.94085 25142 ft 401 kts 211°
2026-05-05 07:34 -23.96577 -46.95619 25470 ft 403 kts 211°
2026-05-05 07:34 -23.99008 -46.97161 25819 ft 405 kts 211°
2026-05-05 07:35 -24.01451 -46.98711 26141 ft 407 kts 211°
2026-05-05 07:35 -24.03908 -47.00268 26463 ft 408 kts 211°
2026-05-05 07:35 -24.06373 -47.01831 26801 ft 410 kts 211°
2026-05-05 07:35 -24.08852 -47.03405 27098 ft 412 kts 211°
2026-05-05 07:36 -24.11344 -47.04986 27425 ft 414 kts 211°
2026-05-05 07:36 -24.13813 -47.06550 27726 ft 416 kts 211°
2026-05-05 07:36 -24.16328 -47.08148 28027 ft 418 kts 211°
2026-05-05 07:36 -24.18843 -47.09748 28324 ft 419 kts 211°
2026-05-05 07:37 -24.21382 -47.11364 28604 ft 422 kts 211°
2026-05-05 07:37 -24.23924 -47.12983 28877 ft 424 kts 211°
2026-05-05 07:37 -24.26481 -47.14614 29145 ft 426 kts 212°
2026-05-05 07:37 -24.29027 -47.16299 29417 ft 427 kts 213°
2026-05-05 07:38 -24.31515 -47.18015 29668 ft 429 kts 214°
2026-05-05 07:38 -24.34029 -47.19789 29927 ft 430 kts 214°
2026-05-05 07:38 -24.36559 -47.21583 30184 ft 432 kts 214°
2026-05-05 07:38 -24.39090 -47.23371 30444 ft 432 kts 214°
2026-05-05 07:39 -24.41622 -47.25154 30774 ft 431 kts 214°
2026-05-05 07:39 -24.44122 -47.26903 31100 ft 430 kts 214°
2026-05-05 07:39 -24.46647 -47.28657 31433 ft 428 kts 214°
2026-05-05 07:39 -24.49178 -47.30409 31760 ft 427 kts 214°
2026-05-05 07:40 -24.51690 -47.32148 32077 ft 427 kts 214°
2026-05-05 07:40 -24.54205 -47.33892 32361 ft 427 kts 214°
2026-05-05 07:40 -24.56681 -47.35617 32656 ft 426 kts 214°
2026-05-05 07:40 -24.59184 -47.37365 32978 ft 424 kts 214°
2026-05-05 07:41 -24.61675 -47.39106 33300 ft 423 kts 214°
2026-05-05 07:41 -24.64157 -47.40842 33616 ft 422 kts 214°
2026-05-05 07:41 -24.66635 -47.42581 33939 ft 421 kts 214°
2026-05-05 07:41 -24.69079 -47.44296 34099 ft 420 kts 214°
2026-05-05 07:42 -24.73992 -47.47731 34119 ft 417 kts 214°
2026-05-05 07:42 -24.78860 -47.51136 34120 ft 416 kts 214°
2026-05-05 07:43 -24.83769 -47.54569 34119 ft 417 kts 214°
2026-05-05 07:43 -24.88676 -47.58005 34120 ft 417 kts 214°
2026-05-05 07:44 -24.93579 -47.61447 34119 ft 417 kts 214°
2026-05-05 07:44 -24.98473 -47.64892 34125 ft 417 kts 214°
2026-05-05 07:45 -25.03335 -47.68314 34124 ft 417 kts 214°
2026-05-05 07:45 -25.08235 -47.71760 34123 ft 417 kts 214°
2026-05-05 07:46 -25.13134 -47.75210 34138 ft 417 kts 215°
2026-05-05 07:46 -25.18008 -47.78647 34133 ft 417 kts 215°
2026-05-05 07:47 -25.22911 -47.82114 34135 ft 417 kts 215°
2026-05-05 07:47 -25.27803 -47.85579 34135 ft 417 kts 215°
2026-05-05 07:48 -25.32668 -47.89022 34136 ft 417 kts 215°
2026-05-05 07:48 -25.37563 -47.92489 34134 ft 417 kts 215°
2026-05-05 07:49 -25.42448 -47.95947 34136 ft 417 kts 215°
2026-05-05 07:49 -25.47304 -47.99397 34132 ft 417 kts 215°
2026-05-05 07:50 -25.52211 -48.02893 34129 ft 417 kts 215°
2026-05-05 07:50 -25.57062 -48.06340 34127 ft 416 kts 215°
2026-05-05 07:51 -25.61941 -48.09817 34125 ft 416 kts 215°
2026-05-05 07:51 -25.66816 -48.13291 34123 ft 416 kts 215°
2026-05-05 07:52 -25.71697 -48.16758 34124 ft 416 kts 215°
2026-05-05 07:52 -25.76541 -48.20206 34134 ft 416 kts 215°
2026-05-05 07:53 -25.81406 -48.23672 34130 ft 415 kts 215°
2026-05-05 07:53 -25.86251 -48.27123 34126 ft 415 kts 215°
2026-05-05 07:54 -25.91102 -48.30598 34122 ft 415 kts 215°
2026-05-05 07:54 -25.95962 -48.34074 34119 ft 415 kts 215°
2026-05-05 07:55 -26.00820 -48.37545 34117 ft 415 kts 215°
2026-05-05 07:55 -26.05678 -48.41028 34128 ft 415 kts 215°
2026-05-05 07:56 -26.10494 -48.44481 34124 ft 414 kts 215°
2026-05-05 07:56 -26.15348 -48.47961 34118 ft 414 kts 215°
2026-05-05 07:57 -26.19374 -48.50853 34113 ft 414 kts 215°
2026-05-05 07:57 -26.24215 -48.54337 34113 ft 414 kts 215°
2026-05-05 07:58 -26.29056 -48.57821 34120 ft 414 kts 215°
2026-05-05 07:58 -26.33902 -48.61321 34119 ft 414 kts 215°
2026-05-05 07:59 -26.38740 -48.64820 34128 ft 414 kts 216°
2026-05-05 07:59 -26.43550 -48.68297 34130 ft 414 kts 215°
2026-05-05 08:00 -26.48381 -48.71800 34130 ft 413 kts 216°
2026-05-05 08:00 -26.53150 -48.75312 34119 ft 412 kts 216°
2026-05-05 08:01 -26.57937 -48.78856 34117 ft 412 kts 216°
2026-05-05 08:01 -26.62726 -48.82398 34117 ft 413 kts 216°
2026-05-05 08:02 -26.67519 -48.85943 34127 ft 412 kts 216°
2026-05-05 08:02 -26.72298 -48.89433 34139 ft 412 kts 215°
2026-05-05 08:03 -26.77118 -48.92932 34129 ft 412 kts 216°
2026-05-05 08:03 -26.81916 -48.96438 34135 ft 411 kts 216°
2026-05-05 08:04 -26.86715 -48.99952 34123 ft 412 kts 216°
2026-05-05 08:04 -26.91518 -49.03471 34127 ft 412 kts 216°
2026-05-05 08:05 -26.96313 -49.06993 34128 ft 412 kts 215°
2026-05-05 08:05 -27.01084 -49.10483 34130 ft 411 kts 216°
2026-05-05 08:06 -27.05873 -49.14005 34149 ft 411 kts 216°
2026-05-05 08:06 -27.10654 -49.17526 34157 ft 410 kts 216°
2026-05-05 08:07 -27.15396 -49.21017 34155 ft 410 kts 216°
2026-05-05 08:07 -27.20168 -49.24536 34146 ft 410 kts 216°
2026-05-05 08:08 -27.24944 -49.28067 34144 ft 410 kts 216°
2026-05-05 08:08 -27.29715 -49.31589 34183 ft 409 kts 216°
2026-05-05 08:09 -27.34471 -49.35112 34178 ft 409 kts 216°
2026-05-05 08:09 -27.39190 -49.38611 34177 ft 409 kts 216°
2026-05-05 08:10 -27.43950 -49.42127 34187 ft 409 kts 216°
2026-05-05 08:10 -27.48709 -49.45647 34189 ft 408 kts 216°
2026-05-05 08:11 -27.53447 -49.49179 34194 ft 408 kts 216°
2026-05-05 08:11 -27.57879 -49.53109 34190 ft 405 kts 224°
2026-05-05 08:12 -27.62070 -49.57304 34205 ft 404 kts 224°
2026-05-05 08:12 -27.66281 -49.61519 34207 ft 404 kts 224°
2026-05-05 08:13 -27.70487 -49.65751 34210 ft 404 kts 224°
2026-05-05 08:13 -27.74661 -49.69953 34204 ft 404 kts 224°
2026-05-05 08:14 -27.78866 -49.74183 34199 ft 404 kts 224°
2026-05-05 08:14 -27.83066 -49.78421 34203 ft 404 kts 224°
2026-05-05 08:15 -27.85816 -49.81200 34207 ft 404 kts 224°
2026-05-05 08:15 -27.89342 -49.84746 34208 ft 403 kts 224°
2026-05-05 08:16 -27.93504 -49.88959 34209 ft 403 kts 224°
2026-05-05 08:16 -27.97689 -49.93196 34211 ft 403 kts 224°
2026-05-05 08:17 -28.01847 -49.97410 34201 ft 403 kts 224°
2026-05-05 08:17 -28.06037 -50.01658 34200 ft 403 kts 224°
2026-05-05 08:18 -28.10235 -50.05916 34430 ft 405 kts 224°
2026-05-05 08:18 -28.12335 -50.08046 34702 ft 405 kts 224°
2026-05-05 08:18 -28.14429 -50.10172 34969 ft 404 kts 224°
2026-05-05 08:19 -28.16520 -50.12297 35234 ft 403 kts 224°
2026-05-05 08:19 -28.18604 -50.14416 35518 ft 402 kts 224°
2026-05-05 08:19 -28.20652 -50.16503 35783 ft 400 kts 224°
2026-05-05 08:19 -28.22728 -50.18619 36010 ft 400 kts 224°
2026-05-05 08:20 -28.24795 -50.20729 36154 ft 400 kts 224°
2026-05-05 08:20 -28.26862 -50.22844 36196 ft 399 kts 224°
2026-05-05 08:20 -28.30980 -50.27057 36195 ft 399 kts 224°
2026-05-05 08:21 -28.35090 -50.31248 36187 ft 399 kts 224°
2026-05-05 08:21 -28.39224 -50.35465 36182 ft 399 kts 224°
2026-05-05 08:22 -28.43350 -50.39691 36195 ft 399 kts 224°
2026-05-05 08:22 -28.47456 -50.43914 36186 ft 399 kts 224°
2026-05-05 08:23 -28.51580 -50.48150 36189 ft 399 kts 224°
2026-05-05 08:23 -28.55702 -50.52382 36185 ft 399 kts 224°
2026-05-05 08:24 -28.59822 -50.56620 36186 ft 399 kts 224°
2026-05-05 08:24 -28.63944 -50.60861 36180 ft 399 kts 224°
2026-05-05 08:25 -28.68033 -50.65079 36179 ft 399 kts 224°
2026-05-05 08:25 -28.72157 -50.69331 36170 ft 399 kts 224°
2026-05-05 08:26 -28.76282 -50.73586 36167 ft 399 kts 224°
2026-05-05 08:26 -28.80375 -50.77831 36176 ft 399 kts 224°
2026-05-05 08:27 -28.84495 -50.82096 36165 ft 399 kts 224°
2026-05-05 08:27 -28.88613 -50.86353 36169 ft 399 kts 224°
2026-05-05 08:28 -28.92697 -50.90596 36152 ft 399 kts 225°
2026-05-05 08:28 -28.96806 -50.94869 36155 ft 399 kts 225°